Showing default

FLOCK 4G 16, 62638

Orbit data source: Space-Track

FLOCK 4G 16, 62638 is a payload satellite owned by Planet (US) in SSO that was launched on Tue, 14 Jan 2025 UTC via an FALCON 9 launch vehicle from the Air Force Western Test Range (AFWTR). Payload-class satellites include a variety of spacecraft equipped with specific instruments for various scientific and technological missions. These include communications satellites like Starlink; space stations such as the ISS; scientific satellites like the Hubble; Earth observation satellites from companies like Planet Labs, Umbra, and HawkEye 360; GPS; miniature CubeSats for education and research; and military/defense satellites.

Loading next visibility...
Identifier
62638, 2025-009AF
Orbit
SSO
Country
Flag of USUS
Related business
Manufacturer
Planet
Mission
Non-operational Commercial Imaging
Bus & Motor
CUBESAT 3U, Unknown motor
Mass
5.7 kg wet, 5.7 kg dry
Launch date (UTC)
2025-01-14 (8 months ago)
Launch vehicle
FALCON 9
Launch site
Air Force Western Test Range (AFWTR)
Object type
Payload
Rocket body
Debris
Shape & HBR
Box + 2 Pan, 0.1 m
Radar Cross Section
0.035 m², Small (<0.1 m²)

Expand to show TLE details & history
Last TLE update: 8 hours ago

TLE from 8 hours ago
0 FLOCK 4G 16
1 62638U 25009AF  25259.52915982  .00027562  00000-0  96031-3 0  9999
2 62638  97.4164 339.7606 0002639 175.0268 185.0999 15.29621797 37269
Epoch: 2025-09-16T12:41Z
TLE epoch observation values (Epoch: 2025-09-16T12:41:59.408Z)
Latitude
-0.00002°
Longitude
153.54491°
Altitude
481.847 km
Speed
7.624 km/s
True Right ascension
22h 39m 02s
True Declination
0° 00' 00"
Sunlit
Object was in full shadow at epoch
Visualization orbit readout
Latitude
Unknown
Longitude
Unknown
Altitude
Unknown
Speed
Unknown
Apparent Right ascension
Unknown
Apparent Declination
Unknown
Sunlit
N/A
Visualization observer readout
Local Sidereal Time
13:24:21
Azimuth
Unknown
Elevation
Unknown
Doppler factor
Unknown
Orbital elements
Apogee altitude
475.704 km
Perigee altitude
472.087 km
Semi-major axis
6,852.032 km
Eccentricity
0.00026
Inclination
97.4164°
RAAN
339.7606°
Arg. of periapsis
175.0268°
True anomaly
185.09721°
Mean anomaly
185.0999°
Eccentric anomaly
185.09856°
Mean motion
3.82661 °/min
Orbital period
94.08 mins
BSTAR
0.00096031
Loading maneuver chart data...
Computing Atmospheric mass density...
Loading historical data...
Loading historical data...
Loading historical data...
Loading historical data...
Loading historical data...
Loading historical data...
Loading historical data...

Documentation

Showing up to 5 results
|